Year,Month,Day,Hour,Minute,Value (Times are PST for temperature in C)
2011,09,20,09,08,13.00
2011,09,20,09,09,13.20
2011,09,20,09,10,13.20
2011,09,20,09,11,13.40
2011,09,20,09,12,13.50
2011,09,20,09,13,13.70
2011,09,20,09,14,13.80
2011,09,20,09,15,13.90
2011,09,20,09,16,14.00
2011,09,20,09,17,14.10
2011,09,20,09,18,14.20
2011,09,20,09,19,14.30
2011,09,20,09,20,14.50
2011,09,20,09,21,14.60
2011,09,20,09,22,14.70
2011,09,20,09,23,14.80
2011,09,20,09,24,14.90
2011,09,20,09,25,15.00
2011,09,20,09,26,15.10
2011,09,20,09,27,15.10
2011,09,20,09,28,15.30
2011,09,20,09,29,15.30
2011,09,20,09,30,15.40
2011,09,20,09,31,15.50
2011,09,20,09,32,15.60
2011,09,20,09,33,15.70
2011,09,20,09,34,15.80
2011,09,20,09,35,15.80
2011,09,20,09,36,15.90
2011,09,20,09,37,16.10
2011,09,20,09,38,16.10
2011,09,20,09,39,16.10
2011,09,20,09,40,16.20
2011,09,20,09,41,16.20
2011,09,20,09,42,16.20
2011,09,20,09,43,16.30
2011,09,20,09,44,16.40
2011,09,20,09,45,16.50
2011,09,20,09,46,16.60
2011,09,20,09,47,16.70
2011,09,20,09,48,16.70
2011,09,20,09,49,16.80
2011,09,20,09,50,16.90
2011,09,20,09,51,17.00
2011,09,20,09,52,17.10
2011,09,20,09,53,17.10
2011,09,20,09,54,17.20
2011,09,20,09,55,17.20
2011,09,20,09,56,17.20
2011,09,20,09,57,17.30
2011,09,20,09,58,17.30
2011,09,20,09,59,17.30
2011,09,20,10,00,17.40
2011,09,20,10,01,17.40
2011,09,20,10,02,17.50
2011,09,20,10,03,17.50
2011,09,20,10,04,17.50
2011,09,20,10,05,17.50
2011,09,20,10,06,17.60
2011,09,20,10,07,17.60
2011,09,20,10,08,17.70
2011,09,20,10,09,17.70
2011,09,20,10,10,17.80
2011,09,20,10,11,17.80
2011,09,20,10,12,17.90
2011,09,20,10,13,17.90
2011,09,20,10,14,18.00
2011,09,20,10,15,18.10
2011,09,20,10,16,18.20
2011,09,20,10,17,18.10
2011,09,20,10,18,18.10
2011,09,20,10,19,18.10
2011,09,20,10,20,18.00
2011,09,20,10,21,17.90
2011,09,20,10,22,17.90
2011,09,20,10,23,17.90
2011,09,20,10,24,17.90
2011,09,20,10,25,17.90
2011,09,20,10,26,17.90
2011,09,20,10,27,17.80
2011,09,20,10,28,17.80
2011,09,20,10,29,17.90
2011,09,20,10,30,17.90
2011,09,20,10,31,17.90
2011,09,20,10,32,17.90
2011,09,20,10,33,17.90
2011,09,20,10,34,17.90
2011,09,20,10,35,17.90
2011,09,20,10,36,17.90
2011,09,20,10,37,18.00
2011,09,20,10,38,18.10
2011,09,20,10,39,18.10
2011,09,20,10,40,18.20
2011,09,20,10,41,18.20
2011,09,20,10,42,18.20
2011,09,20,10,43,18.20
2011,09,20,10,44,18.30
2011,09,20,10,45,18.30
2011,09,20,10,46,18.30
2011,09,20,10,47,18.30
2011,09,20,10,48,18.30
2011,09,20,10,49,18.30
2011,09,20,10,50,18.40
2011,09,20,10,51,18.40
2011,09,20,10,52,18.40
2011,09,20,10,53,18.40
2011,09,20,10,54,18.30
2011,09,20,10,55,18.30
2011,09,20,10,56,18.30
2011,09,20,10,57,18.40
2011,09,20,10,58,18.40
2011,09,20,10,59,18.40
2011,09,20,11,00,18.50
2011,09,20,11,01,18.50
2011,09,20,11,02,18.50
2011,09,20,11,03,18.60
2011,09,20,11,04,18.60
2011,09,20,11,05,18.70
2011,09,20,11,06,18.70
2011,09,20,11,07,18.70
2011,09,20,11,08,18.80
2011,09,20,11,09,18.80
2011,09,20,11,10,18.80
2011,09,20,11,11,18.90
2011,09,20,11,12,18.90
2011,09,20,11,13,18.90
2011,09,20,11,14,18.90
2011,09,20,11,15,18.90
2011,09,20,11,16,18.80
2011,09,20,11,17,18.80
2011,09,20,11,18,18.80
2011,09,20,11,19,18.80
2011,09,20,11,20,18.80
2011,09,20,11,21,18.80
2011,09,20,11,22,18.80
2011,09,20,11,23,18.80
2011,09,20,11,24,18.80
2011,09,20,11,25,18.80
2011,09,20,11,26,18.80
2011,09,20,11,27,18.80
2011,09,20,11,28,18.80
2011,09,20,11,29,18.70
2011,09,20,11,30,18.60
2011,09,20,11,31,18.40
2011,09,20,11,32,18.30
2011,09,20,11,33,18.30
2011,09,20,11,34,18.30
2011,09,20,11,35,18.30
2011,09,20,11,36,18.30
2011,09,20,11,37,18.40
2011,09,20,11,38,18.40
2011,09,20,11,39,18.40
2011,09,20,11,40,18.50
2011,09,20,11,41,18.50
2011,09,20,11,42,18.60
2011,09,20,11,43,18.60
2011,09,20,11,44,18.70
2011,09,20,11,45,18.60
2011,09,20,11,46,18.70
2011,09,20,11,47,18.60
2011,09,20,11,48,18.60
2011,09,20,11,49,18.60
2011,09,20,11,50,18.60
2011,09,20,11,51,18.60
2011,09,20,11,52,18.60
2011,09,20,11,53,18.70
2011,09,20,11,54,18.70
2011,09,20,11,55,18.70
2011,09,20,11,56,18.80
2011,09,20,11,57,18.80
2011,09,20,11,58,18.80
2011,09,20,11,59,18.80
2011,09,20,12,00,18.90
2011,09,20,12,01,18.80
2011,09,20,12,02,18.90
2011,09,20,12,03,18.90
2011,09,20,12,04,19.00
2011,09,20,12,05,19.10
2011,09,20,12,06,19.10
2011,09,20,12,07,19.10
2011,09,20,12,08,19.20
2011,09,20,12,09,19.20
2011,09,20,12,10,19.20
2011,09,20,12,11,19.20
2011,09,20,12,12,19.30
2011,09,20,12,13,19.30
2011,09,20,12,14,19.30
2011,09,20,12,15,19.30
2011,09,20,12,16,19.30
2011,09,20,12,17,19.40
2011,09,20,12,18,19.50
2011,09,20,12,19,19.60
2011,09,20,12,20,19.60
2011,09,20,12,21,19.60
2011,09,20,12,22,19.60
2011,09,20,12,23,19.70
2011,09,20,12,24,19.70
2011,09,20,12,25,19.60
2011,09,20,12,26,19.60
2011,09,20,12,27,19.60
2011,09,20,12,28,19.60
2011,09,20,12,29,19.60
2011,09,20,12,30,19.50
2011,09,20,12,31,19.40
2011,09,20,12,32,19.40
2011,09,20,12,33,19.40
2011,09,20,12,34,19.50
2011,09,20,12,35,19.50
2011,09,20,12,36,19.60
2011,09,20,12,37,19.60
2011,09,20,12,38,19.70
2011,09,20,12,39,19.80
2011,09,20,12,40,19.90
2011,09,20,12,41,19.90
2011,09,20,12,42,19.90
2011,09,20,12,43,19.90
2011,09,20,12,44,19.90
2011,09,20,12,45,19.90
2011,09,20,12,46,19.90
2011,09,20,12,47,19.90
2011,09,20,12,48,19.90
2011,09,20,12,49,19.90
2011,09,20,12,50,20.00
2011,09,20,12,51,20.10
2011,09,20,12,52,20.00
2011,09,20,12,53,19.90
2011,09,20,12,54,19.90
2011,09,20,12,55,19.80
2011,09,20,12,56,19.70
2011,09,20,12,57,19.60
2011,09,20,12,58,19.70
2011,09,20,12,59,19.70
2011,09,20,13,00,19.80
2011,09,20,13,01,19.90
2011,09,20,13,02,19.90
2011,09,20,13,03,20.00
2011,09,20,13,04,20.10
2011,09,20,13,05,20.10
2011,09,20,13,06,20.00
2011,09,20,13,07,19.80
2011,09,20,13,08,19.70
2011,09,20,13,09,19.60
2011,09,20,13,10,19.70
2011,09,20,13,11,19.60
2011,09,20,13,12,19.60
2011,09,20,13,13,19.60
2011,09,20,13,14,19.60
2011,09,20,13,15,19.60
2011,09,20,13,16,19.60
2011,09,20,13,17,19.70
2011,09,20,13,18,19.70
2011,09,20,13,19,19.80
2011,09,20,13,20,19.90
2011,09,20,13,21,19.90
2011,09,20,13,22,20.00
2011,09,20,13,23,20.10
2011,09,20,13,24,19.90
2011,09,20,13,25,19.90
2011,09,20,13,26,20.00
2011,09,20,13,27,20.10
2011,09,20,13,28,20.10
2011,09,20,13,29,20.10
2011,09,20,13,30,20.10
2011,09,20,13,31,20.10
2011,09,20,13,32,20.10
2011,09,20,13,33,20.00
2011,09,20,13,34,19.90
2011,09,20,13,35,19.90
2011,09,20,13,36,19.80
2011,09,20,13,37,19.70
2011,09,20,13,38,19.70
2011,09,20,13,39,19.70
2011,09,20,13,40,19.80
2011,09,20,13,41,19.80
2011,09,20,13,42,19.90
2011,09,20,13,43,19.90
2011,09,20,13,44,19.90
2011,09,20,13,45,20.10
2011,09,20,13,46,20.10
2011,09,20,13,47,20.20
2011,09,20,13,48,20.20
2011,09,20,13,49,20.20
2011,09,20,13,50,20.20
2011,09,20,13,51,20.20
2011,09,20,13,52,20.20
2011,09,20,13,53,20.30
2011,09,20,13,54,20.40
2011,09,20,13,55,20.50
2011,09,20,13,56,20.50
2011,09,20,13,57,20.60
2011,09,20,13,58,20.60
2011,09,20,13,59,20.60
2011,09,20,14,00,20.60
2011,09,20,14,01,20.50
2011,09,20,14,02,20.50
2011,09,20,14,03,20.50
2011,09,20,14,04,20.50
2011,09,20,14,05,20.50
2011,09,20,14,06,20.50
2011,09,20,14,07,20.60
2011,09,20,14,08,20.60
2011,09,20,14,09,20.60
2011,09,20,14,10,20.60
2011,09,20,14,11,20.50
2011,09,20,14,12,20.50
2011,09,20,14,13,20.50
2011,09,20,14,14,20.50
2011,09,20,14,15,20.50
2011,09,20,14,16,20.40
2011,09,20,14,17,20.40
2011,09,20,14,18,20.40
2011,09,20,14,19,20.40
2011,09,20,14,20,20.50
2011,09,20,14,21,20.50
2011,09,20,14,22,20.60
2011,09,20,14,23,20.60
2011,09,20,14,24,20.60
2011,09,20,14,25,20.70
2011,09,20,14,26,20.70
2011,09,20,14,27,20.70
2011,09,20,14,28,20.70
2011,09,20,14,29,20.70
2011,09,20,14,30,20.80
2011,09,20,14,31,20.80
2011,09,20,14,32,20.90
2011,09,20,14,33,20.90
2011,09,20,14,34,21.00
2011,09,20,14,35,21.10
2011,09,20,14,36,21.30
2011,09,20,14,37,21.40
2011,09,20,14,38,21.60
2011,09,20,14,39,21.70
2011,09,20,14,40,21.80
2011,09,20,14,41,21.80
2011,09,20,14,42,21.80
2011,09,20,14,43,21.90
2011,09,20,14,44,21.90
2011,09,20,14,45,22.00
2011,09,20,14,46,22.00
2011,09,20,14,47,22.00
2011,09,20,14,48,21.90
2011,09,20,14,49,21.70
2011,09,20,14,50,21.50
2011,09,20,14,51,21.30
2011,09,20,14,52,21.30
2011,09,20,14,53,21.20
2011,09,20,14,54,21.20
2011,09,20,14,55,21.10
2011,09,20,14,56,21.00
2011,09,20,14,57,21.00
2011,09,20,14,58,20.90
2011,09,20,14,59,20.90
2011,09,20,15,00,20.90
2011,09,20,15,01,20.90
2011,09,20,15,02,21.00
2011,09,20,15,03,21.00
2011,09,20,15,04,21.00
2011,09,20,15,05,20.90
2011,09,20,15,06,20.90
2011,09,20,15,07,20.90
2011,09,20,15,08,21.00
2011,09,20,15,09,20.90
2011,09,20,15,10,20.80
2011,09,20,15,11,20.70
2011,09,20,15,12,20.70
2011,09,20,15,13,20.70
2011,09,20,15,14,20.70
2011,09,20,15,15,20.70
2011,09,20,15,16,20.70
2011,09,20,15,17,20.70
2011,09,20,15,18,20.70
2011,09,20,15,19,20.60
2011,09,20,15,20,20.60
2011,09,20,15,21,20.50
2011,09,20,15,22,20.40
2011,09,20,15,23,20.30
2011,09,20,15,24,20.20
2011,09,20,15,25,20.20
2011,09,20,15,26,20.30
2011,09,20,15,27,20.30
2011,09,20,15,28,20.30
2011,09,20,15,29,20.30
2011,09,20,15,30,20.20
2011,09,20,15,31,20.20
2011,09,20,15,32,20.20
2011,09,20,15,33,20.20
2011,09,20,15,34,20.20
2011,09,20,15,35,20.20
2011,09,20,15,36,20.20
2011,09,20,15,37,20.20
2011,09,20,15,38,20.20
2011,09,20,15,39,20.20
2011,09,20,15,40,20.20
2011,09,20,15,41,20.20
2011,09,20,15,42,20.20
2011,09,20,15,43,20.20
2011,09,20,15,44,20.20
2011,09,20,15,45,20.20
2011,09,20,15,46,20.20
2011,09,20,15,47,20.20
2011,09,20,15,48,20.20
2011,09,20,15,49,20.30
2011,09,20,15,50,20.20
2011,09,20,15,51,20.30
2011,09,20,15,52,20.30
2011,09,20,15,53,20.30
2011,09,20,15,54,20.30
2011,09,20,15,55,20.30
2011,09,20,15,56,20.30
2011,09,20,15,57,20.20
2011,09,20,15,58,20.20
2011,09,20,15,59,20.20
2011,09,20,16,00,20.10
2011,09,20,16,01,19.90
2011,09,20,16,02,19.90
2011,09,20,16,03,19.80
2011,09,20,16,04,19.80
2011,09,20,16,05,19.80
2011,09,20,16,06,19.80
2011,09,20,16,07,19.90
2011,09,20,16,08,20.00
2011,09,20,16,09,20.10
2011,09,20,16,10,20.20
2011,09,20,16,11,20.30
2011,09,20,16,12,20.40
2011,09,20,16,13,20.40
2011,09,20,16,14,20.20
2011,09,20,16,15,20.10
2011,09,20,16,16,20.00
2011,09,20,16,17,19.90
2011,09,20,16,18,19.90
2011,09,20,16,19,19.90
2011,09,20,16,20,19.90
2011,09,20,16,21,19.90
2011,09,20,16,22,19.90
2011,09,20,16,23,19.90
2011,09,20,16,24,19.90
2011,09,20,16,25,20.00
2011,09,20,16,26,20.10
2011,09,20,16,27,20.10
2011,09,20,16,28,20.10
2011,09,20,16,29,20.20
2011,09,20,16,30,20.20
2011,09,20,16,31,20.20
2011,09,20,16,32,20.20
2011,09,20,16,33,20.20
2011,09,20,16,34,20.20
2011,09,20,16,35,20.20
2011,09,20,16,36,20.20
2011,09,20,16,37,20.20
2011,09,20,16,38,20.30
2011,09,20,16,39,20.40
2011,09,20,16,40,20.40
2011,09,20,16,41,20.50
2011,09,20,16,42,20.50
2011,09,20,16,43,20.50
2011,09,20,16,44,20.40
2011,09,20,16,45,20.30
2011,09,20,16,46,20.20
2011,09,20,16,47,20.20
2011,09,20,16,48,20.20
2011,09,20,16,49,20.20
2011,09,20,16,50,20.20
2011,09,20,16,51,20.20
2011,09,20,16,52,20.10
2011,09,20,16,53,20.10
2011,09,20,16,54,19.90
2011,09,20,16,55,19.90
2011,09,20,16,56,19.80
2011,09,20,16,57,19.80
2011,09,20,16,58,19.70
2011,09,20,16,59,19.70
2011,09,20,17,00,19.60
2011,09,20,17,01,19.60
2011,09,20,17,02,19.50
2011,09,20,17,03,19.50
2011,09,20,17,04,19.50
2011,09,20,17,05,19.40
2011,09,20,17,06,19.40
2011,09,20,17,07,19.40
2011,09,20,17,08,19.50
2011,09,20,17,09,19.50
2011,09,20,17,10,19.50
2011,09,20,17,11,19.50
2011,09,20,17,12,19.50
2011,09,20,17,13,19.50
2011,09,20,17,14,19.60
2011,09,20,17,15,19.60
2011,09,20,17,16,19.60
2011,09,20,17,17,19.70
2011,09,20,17,18,19.70
2011,09,20,17,19,19.70
2011,09,20,17,20,19.70
2011,09,20,17,21,19.70
2011,09,20,17,22,19.70
2011,09,20,17,23,19.70
2011,09,20,17,24,19.60
2011,09,20,17,25,19.60
2011,09,20,17,26,19.50
2011,09,20,17,27,19.50
2011,09,20,17,28,19.50
2011,09,20,17,29,19.50
2011,09,20,17,30,19.40
2011,09,20,17,31,19.40
2011,09,20,17,32,19.40
2011,09,20,17,33,19.50
2011,09,20,17,34,19.50
2011,09,20,17,35,19.50
2011,09,20,17,36,19.60
2011,09,20,17,37,19.60
2011,09,20,17,38,19.60
2011,09,20,17,39,19.60
2011,09,20,17,40,19.70
2011,09,20,17,41,19.70
2011,09,20,17,42,19.70
2011,09,20,17,43,19.80
2011,09,20,17,44,19.80
2011,09,20,17,45,19.80
2011,09,20,17,46,19.80
2011,09,20,17,47,19.80
2011,09,20,17,48,19.70
2011,09,20,17,49,19.60
2011,09,20,17,50,19.60
2011,09,20,17,51,19.50
2011,09,20,17,52,19.40
2011,09,20,17,53,19.40
2011,09,20,17,54,19.40
2011,09,20,17,55,19.30
2011,09,20,17,56,19.30
2011,09,20,17,57,19.30
2011,09,20,17,58,19.30
2011,09,20,17,59,19.20
2011,09,20,18,00,19.20
2011,09,20,18,01,19.20
2011,09,20,18,02,19.20
2011,09,20,18,03,19.20
2011,09,20,18,04,19.20
2011,09,20,18,05,19.20
2011,09,20,18,06,19.20
2011,09,20,18,07,19.20
2011,09,20,18,08,19.20
2011,09,20,18,09,19.20
2011,09,20,18,10,19.20
2011,09,20,18,11,19.20
2011,09,20,18,12,19.20
2011,09,20,18,13,19.20
2011,09,20,18,14,19.20
2011,09,20,18,15,19.20
2011,09,20,18,16,19.20
2011,09,20,18,17,19.20
